• în Republica Moldova
  • Lista ţărilor
  • Pe 7 zile
  • Temperatura apei
  • Hartă satelitară
  • Meteo pe hartă
  • Widget-uri
  • user-avatar
    Intrare

    Meteo pe oră la Saurimo

    Astăzi, 24 Iunie, Sâmbătă

    Timp Temperatura Precipitaţii Vânt Presiune Umiditate
    00:00 +17°C° 0 mm 2 m/s 671 mmHg 43%
    01:00 +16°C° 0 mm 2 m/s 671 mmHg 44%
    02:00 +16°C° 0 mm 2 m/s 671 mmHg 46%
    03:00 +16°C° 0 mm 3 m/s 671 mmHg 48%
    04:00 +14°C° 0 mm 3 m/s 670 mmHg 50%
    05:00 +16°C° 0 mm 3 m/s 671 mmHg 51%
    06:00 +16°C° 0 mm 3 m/s 671 mmHg 51%
    07:00 +16°C° 0 mm 3 m/s 672 mmHg 52%
    08:00 +19°C° 0 mm 3 m/s 672 mmHg 45%
    09:00 +22°C° 0 mm 3 m/s 673 mmHg 39%
    10:00 +26°C° 0 mm 4 m/s 674 mmHg 32%
    11:00 +28°C° 0 mm 3 m/s 673 mmHg 29%
    12:00 +30°C° 0 mm 2 m/s 673 mmHg 25%
    13:00 +32°C° 0 mm 2 m/s 673 mmHg 22%
    14:00 +32°C° 0 mm 1 m/s 672 mmHg 22%
    15:00 +31°C° 0 mm 1 m/s 672 mmHg 22%
    16:00 +31°C° 0 mm 1 m/s 671 mmHg 22%
    17:00 +27°C° 0 mm 1 m/s 671 mmHg 29%
    18:00 +24°C° 0 mm 1 m/s 670 mmHg 35%
    19:00 +20°C° 0 mm 1 m/s 670 mmHg 42%
    20:00 +19°C° 0 mm 2 m/s 670 mmHg 42%
    21:00 +19°C° 0 mm 2 m/s 671 mmHg 43%
    22:00 +19°C° 0 mm 2 m/s 671 mmHg 43%
    23:00 +18°C° 0 mm 2 m/s 671 mmHg 44%

    Mâine, 25 Iunie, Duminică

    Timp Temperatura Precipitaţii Vânt Presiune Umiditate
    00:00 +17°C° 0 mm 2 m/s 671 mmHg 46%
    01:00 +17°C° 0 mm 2 m/s 670 mmHg 47%
    02:00 +17°C° 0 mm 2 m/s 670 mmHg 48%
    03:00 +16°C° 0 mm 2 m/s 670 mmHg 49%
    04:00 +16°C° 0 mm 2 m/s 670 mmHg 50%
    05:00 +16°C° 0 mm 2 m/s 670 mmHg 50%
    06:00 +17°C° 0 mm 3 m/s 671 mmHg 49%
    07:00 +17°C° 0 mm 3 m/s 671 mmHg 49%
    08:00 +20°C° 0 mm 3 m/s 672 mmHg 43%
    09:00 +24°C° 0 mm 3 m/s 672 mmHg 37%
    10:00 +28°C° 0 mm 3 m/s 673 mmHg 32%
    11:00 +29°C° 0 mm 3 m/s 673 mmHg 29%
    12:00 +31°C° 0 mm 3 m/s 672 mmHg 25%
    13:00 +34°C° 0 mm 2 m/s 672 mmHg 22%
    14:00 +32°C° 0 mm 2 m/s 671 mmHg 23%
    15:00 +32°C° 0 mm 2 m/s 671 mmHg 23%
    16:00 +32°C° 0 mm 2 m/s 670 mmHg 24%
    17:00 +28°C° 0 mm 2 m/s 670 mmHg 30%
    18:00 +25°C° 0 mm 2 m/s 670 mmHg 36%
    19:00 +21°C° 0 mm 2 m/s 669 mmHg 42%
    20:00 +21°C° 0 mm 2 m/s 670 mmHg 44%
    21:00 +20°C° 0 mm 2 m/s 670 mmHg 45%
    22:00 +20°C° 0 mm 2 m/s 671 mmHg 46%
    23:00 +19°C° 0 mm 2 m/s 670 mmHg 47%

    Poimâine, 26 Iunie, Luni

    Timp Temperatura Precipitaţii Vânt Presiune Umiditate
    00:00 +19°C° 0 mm 2 m/s 670 mmHg 48%
    01:00 +18°C° 0 mm 2 m/s 670 mmHg 49%
    02:00 +18°C° 0 mm 2 m/s 670 mmHg 49%
    03:00 +18°C° 0 mm 2 m/s 670 mmHg 49%
    04:00 +17°C° 0 mm 2 m/s 670 mmHg 49%
    05:00 +18°C° 0 mm 3 m/s 670 mmHg 49%
    06:00 +18°C° 0 mm 3 m/s 671 mmHg 49%
    07:00 +18°C° 0 mm 3 m/s 671 mmHg 48%
    08:00 +21°C° 0 mm 3 m/s 672 mmHg 42%
    09:00 +25°C° 0 mm 3 m/s 673 mmHg 37%
    10:00 +29°C° 0 mm 3 m/s 674 mmHg 31%
    11:00 +30°C° 0 mm 3 m/s 673 mmHg 28%
    12:00 +33°C° 0 mm 3 m/s 673 mmHg 25%
    13:00 +34°C° 0 mm 2 m/s 672 mmHg 21%
    14:00 +34°C° 0 mm 2 m/s 672 mmHg 21%
    15:00 +32°C° 0 mm 2 m/s 671 mmHg 22%
    16:00 +32°C° 0 mm 2 m/s 671 mmHg 22%
    17:00 +29°C° 0 mm 2 m/s 670 mmHg 27%
    18:00 +26°C° 0 mm 2 m/s 670 mmHg 32%
    19:00 +23°C° 0 mm 2 m/s 670 mmHg 38%
    20:00 +21°C° 0 mm 2 m/s 670 mmHg 39%
    21:00 +20°C° 0 mm 2 m/s 671 mmHg 41%
    22:00 +20°C° 0 mm 2 m/s 671 mmHg 42%
    23:00 +19°C° 0 mm 2 m/s 671 mmHg 44%

    27 Iunie, Marţi

    Timp Temperatura Precipitaţii Vânt Presiune Umiditate
    00:00 +18°C° 0 mm 2 m/s 671 mmHg 45%
    01:00 +18°C° 0 mm 2 m/s 670 mmHg 47%
    02:00 +17°C° 0 mm 2 m/s 670 mmHg 48%
    03:00 +17°C° 0 mm 2 m/s 670 mmHg 49%
    04:00 +16°C° 0 mm 2 m/s 670 mmHg 50%
    05:00 +17°C° 0 mm 2 m/s 671 mmHg 51%
    06:00 +17°C° 0 mm 3 m/s 671 mmHg 51%
    07:00 +17°C° 0 mm 3 m/s 672 mmHg 51%
    08:00 +20°C° 0 mm 3 m/s 673 mmHg 44%
    09:00 +24°C° 0 mm 3 m/s 674 mmHg 37%
    10:00 +28°C° 0 mm 4 m/s 674 mmHg 29%
    11:00 +29°C° 0 mm 3 m/s 674 mmHg 27%
    12:00 +30°C° 0 mm 3 m/s 673 mmHg 24%
    13:00 +33°C° 0 mm 3 m/s 673 mmHg 21%
    14:00 +31°C° 0 mm 3 m/s 672 mmHg 21%
    15:00 +31°C° 0 mm 3 m/s 672 mmHg 21%
    16:00 +31°C° 0 mm 3 m/s 672 mmHg 21%
    17:00 +28°C° 0 mm 2 m/s 671 mmHg 26%
    18:00 +24°C° 0 mm 2 m/s 671 mmHg 32%
    19:00 +20°C° 0 mm 2 m/s 671 mmHg 37%
    20:00 +19°C° 0 mm 2 m/s 671 mmHg 38%
    21:00 +19°C° 0 mm 2 m/s 671 mmHg 38%
    22:00 +18°C° 0 mm 2 m/s 672 mmHg 39%
    23:00 +17°C° 0 mm 2 m/s 671 mmHg 40%

    28 Iunie, Miercuri

    Timp Temperatura Precipitaţii Vânt Presiune Umiditate
    00:00 +17°C° 0 mm 2 m/s 671 mmHg 41%
    01:00 +16°C° 0 mm 2 m/s 671 mmHg 42%
    02:00 +16°C° 0 mm 2 m/s 671 mmHg 45%
    03:00 +15°C° 0 mm 2 m/s 671 mmHg 47%
    04:00 +15°C° 0 mm 2 m/s 671 mmHg 50%
    05:00 +15°C° 0 mm 2 m/s 671 mmHg 50%
    06:00 +15°C° 0 mm 2 m/s 672 mmHg 51%
    07:00 +16°C° 0 mm 2 m/s 672 mmHg 51%
    08:00 +19°C° 0 mm 3 m/s 673 mmHg 44%
    09:00 +24°C° 0 mm 3 m/s 673 mmHg 36%
    10:00 +27°C° 0 mm 3 m/s 674 mmHg 28%
    11:00 +29°C° 0 mm 3 m/s 674 mmHg 24%
    12:00 +30°C° 0 mm 3 m/s 673 mmHg 21%
    13:00 +33°C° 0 mm 3 m/s 672 mmHg 17%
    14:00 +31°C° 0 mm 3 m/s 672 mmHg 17%
    15:00 +31°C° 0 mm 3 m/s 672 mmHg 17%
    16:00 +31°C° 0 mm 3 m/s 671 mmHg 18%
    17:00 +28°C° 0 mm 2 m/s 671 mmHg 23%
    18:00 +24°C° 0 mm 2 m/s 671 mmHg 28%
    19:00 +20°C° 0 mm 2 m/s 671 mmHg 33%
    20:00 +19°C° 0 mm 2 m/s 671 mmHg 34%
    21:00 +18°C° 0 mm 2 m/s 671 mmHg 36%
    22:00 +18°C° 0 mm 2 m/s 671 mmHg 38%
    23:00 +17°C° 0 mm 2 m/s 671 mmHg 39%

    29 Iunie, Joi

    Timp Temperatura Precipitaţii Vânt Presiune Umiditate
    00:00 +16°C° 0 mm 2 m/s 671 mmHg 41%
    01:00 +16°C° 0 mm 2 m/s 670 mmHg 43%
    02:00 +15°C° 0 mm 2 m/s 670 mmHg 45%
    03:00 +15°C° 0 mm 2 m/s 671 mmHg 46%
    04:00 +14°C° 0 mm 2 m/s 671 mmHg 48%
    05:00 +15°C° 0 mm 2 m/s 671 mmHg 48%
    06:00 +15°C° 0 mm 2 m/s 672 mmHg 48%
    07:00 +16°C° 0 mm 2 m/s 672 mmHg 49%
    08:00 +19°C° 0 mm 3 m/s 673 mmHg 41%
    09:00 +24°C° 0 mm 3 m/s 673 mmHg 33%
    10:00 +27°C° 0 mm 4 m/s 674 mmHg 26%
    11:00 +29°C° 0 mm 3 m/s 674 mmHg 23%
    12:00 +30°C° 0 mm 3 m/s 673 mmHg 21%
    13:00 +31°C° 0 mm 3 m/s 672 mmHg 18%
    14:00 +31°C° 0 mm 2 m/s 672 mmHg 18%
    15:00 +31°C° 0 mm 2 m/s 672 mmHg 19%
    16:00 +30°C° 0 mm 2 m/s 671 mmHg 19%
    17:00 +27°C° 0 mm 2 m/s 671 mmHg 24%
    18:00 +24°C° 0 mm 2 m/s 671 mmHg 30%
    19:00 +20°C° 0 mm 2 m/s 671 mmHg 35%
    20:00 +19°C° 0 mm 2 m/s 671 mmHg 36%
    21:00 +18°C° 0 mm 2 m/s 671 mmHg 37%
    22:00 +18°C° 0 mm 2 m/s 671 mmHg 38%
    23:00 +17°C° 0 mm 2 m/s 671 mmHg 39%
    Arată mai mult